GW4759 Weather Reports


time (UTC)temp
C
wind
direction
speed
KPH
gust
KPH
rain 1hr
cm
rain 24hr
cm
rain mn
cm
humidity
%
barometer
mb
20260906071549 19 0 0.0 0.0 0.00 0.05 0.00 99 1011.7
20260906070048 19 0 0.0 0.0 0.00 0.05 0.00 99 1012.0
20260906064555 19 0 0.0 0.0 0.00 0.05 0.00 99 1012.0
20260906063051 19 0 0.0 0.0 0.00 0.05 0.00 99 1012.4
20260906061553 19 0 0.0 0.0 0.00 0.05 0.00 99 1012.7
20260906060049 19 0 0.0 0.0 0.00 0.05 0.00 99 1012.7
20260906054605 19 0 0.0 0.0 0.00 0.05 0.00 99 1012.9
20260906053051 20 0 0.0 0.0 0.00 0.05 0.00 99 1013.0
20260906051550 20 0 0.0 0.0 0.00 0.05 0.00 99 1013.1
20260906050055 20 0 0.0 0.0 0.00 0.05 0.00 99 1013.2
20260906044555 20 0 0.0 0.0 0.00 0.05 0.00 99 1013.1
20260906043049 20 0 0.0 0.0 0.00 0.05 0.00 99 1013.4
20260906041550 20 0 0.0 0.0 0.00 0.05 0.00 99 1013.4
20260906040104 20 0 0.0 0.0 0.00 0.05 0.00 99 1013.5
20260906034554 20 0 0.0 1.6 0.00 0.05 0.05 99 1013.3
20260906033059 20 0 0.0 0.0 0.00 0.05 0.05 98 1013.4
20260906031607 20 0 0.0 1.6 0.00 0.05 0.05 98 1013.5
20260906030054 20 0 0.0 1.6 0.00 0.05 0.05 98 1013.5
20260906024601 20 0 0.0 0.0 0.00 0.05 0.05 98 1013.3
20260906023058 21 0 0.0 0.0 0.00 0.05 0.05 98 1013.2
20260906021551 21 0 0.0 1.6 0.00 0.05 0.05 98 1013.3
20260906020051 21 0 0.0 0.0 0.00 0.05 0.05 97 1013.2
20260906014556 21 0 0.0 0.0 0.00 0.05 0.05 97 1013.2
20260906013056 21 0 0.0 0.0 0.00 0.05 0.05 97 1013.1
20260906011554 21 0 0.0 0.0 0.00 0.05 0.05 96 1012.9
20260906010054 21 0 0.0 0.0 0.00 0.05 0.05 96 1012.9
20260906004549 22 0 0.0 0.0 0.00 0.05 0.05 96 1012.7
20260906003054 22 0 0.0 0.0 0.00 0.05 0.05 95 1012.5
20260906001551 22 0 0.0 0.0 0.00 0.05 0.05 93 1012.1
20260906000059 23 0 0.0 0.0 0.00 0.05 0.05 91 1011.9
20260905234551 24 0 0.0 0.0 0.00 0.05 0.05 87 1011.9
20260905233055 25 0 0.0 0.0 0.00 0.05 0.05 85 1011.7
20260905231551 26 0 0.0 1.6 0.00 0.05 0.05 83 1011.6
20260905230051 26 0 0.0 1.6 0.00 0.05 0.05 80 1011.6
20260905224552 27 0 0.0 4.8 0.00 0.05 0.05 78 1011.6
20260905223050 27 304 0.0 1.6 0.00 0.05 0.05 79 1011.8
20260905221557 27 236 0.0 4.8 0.00 0.05 0.05 78 1011.8
20260905220056 27 274 0.0 4.8 0.00 0.05 0.05 78 1012.1
20260905214552 27 229 0.0 8.0 0.00 0.05 0.05 76 1012.1
20260905213058 27 0 0.0 9.7 0.00 0.05 0.05 75 1012.4
20260905211605 27 124 0.0 9.7 0.00 0.05 0.05 74 1012.4
20260905210103 27 147 0.0 4.8 0.00 0.05 0.05 77 1012.2
20260905204554 27 85 1.6 4.8 0.00 0.05 0.05 76 1012.3
20260905203049 27 0 0.0 1.6 0.00 0.05 0.05 80 1012.5
20260905201553 27 0 0.0 3.2 0.00 0.05 0.05 81 1012.7
20260905200110 27 0 0.0 3.2 0.00 0.05 0.05 81 1012.7
20260905194551 27 0 0.0 3.2 0.00 0.05 0.05 78 1012.8
20260905193048 26 0 0.0 3.2 0.00 0.05 0.05 80 1012.6
20260905191556 26 0 0.0 3.2 0.00 0.05 0.05 81 1012.7
20260905190057 27 71 0.0 1.6 0.00 0.05 0.05 79 1012.5
20260905184555 26 0 0.0 1.6 0.03 0.05 0.05 81 1012.2
20260905183056 26 0 0.0 3.2 0.03 0.05 0.05 86 1012.4
20260905181651 25 198 0.0 1.6 0.03 0.05 0.05 83 1013.1
20260905174555 26 129 4.8 6.4 0.03 0.03 0.03 80 1013.8
20260905173100 27 140 4.8 19.3 0.03 0.03 0.03 77 1014.7
20260905171547 31 0 1.6 6.4 0.03 0.03 0.03 73 1014.2
20260905170059 32 66 1.6 6.4 0.00 0.00 0.00 63 1013.8
20260905164552 33 31 1.6 6.4 0.00 0.00 0.00 58 1014.1
20260905163050 34 220 0.0 6.4 0.00 0.00 0.00 62 1014.1
20260905161548 34 49 0.0 4.8 0.00 0.00 0.00 60 1014.2
20260905160056 33 0 0.0 6.4 0.00 0.00 0.00 60 1014.4
20260905154558 33 125 1.6 3.2 0.00 0.00 0.00 59 1014.6
20260905153051 33 259 1.6 8.0 0.00 0.00 0.00 65 1014.3
20260905151606 32 337 0.0 3.2 0.00 0.00 0.00 67 1014.1
20260905150054 32 260 0.0 4.8 0.00 0.00 0.00 66 1014.3
20260905144552 31 212 0.0 6.4 0.00 0.00 0.00 70 1014.3
20260905143052 31 269 0.0 4.8 0.00 0.00 0.00 75 1014.4
20260905141556 30 0 0.0 3.2 0.00 0.00 0.00 78 1014.3
20260905140054 28 280 0.0 3.2 0.00 0.00 0.00 80 1014.2
20260905134558 28 264 1.6 4.8 0.00 0.00 0.00 82 1014.3
20260905133054 27 0 0.0 0.0 0.00 0.00 0.00 87 1014.5
20260905131550 26 0 0.0 0.0 0.00 0.00 0.00 88 1014.6
20260905130055 25 0 0.0 0.0 0.00 0.00 0.00 93 1014.7
20260905124551 23 0 0.0 0.0 0.00 0.00 0.00 96 1014.8
20260905123048 22 0 0.0 0.0 0.00 0.00 0.00 99 1014.7
20260905121554 21 0 0.0 0.0 0.00 0.00 0.00 100 1014.7
20260905120050 21 0 0.0 0.0 0.00 0.00 0.00 100 1014.3
20260905114548 20 0 0.0 0.0 0.00 0.00 0.00 100 1014.3
20260905113057 20 0 0.0 0.0 0.00 0.00 0.00 100 1014.3
20260905111552 20 0 0.0 0.0 0.00 0.00 0.00 100 1014.1
20260905110106 20 0 0.0 0.0 0.00 0.00 0.00 100 1013.8
20260905104548 20 0 0.0 0.0 0.00 0.00 0.00 99 1013.6
20260905103050 20 0 0.0 0.0 0.00 0.00 0.00 99 1013.7
20260905101605 20 0 0.0 0.0 0.00 0.00 0.00 100 1013.6
20260905100051 20 0 0.0 0.0 0.00 0.00 0.00 100 1013.5
20260905094551 20 0 0.0 0.0 0.00 0.00 0.00 99 1013.5
20260905093116 20 0 0.0 0.0 0.00 0.00 0.00 100 1013.5
20260905091604 20 0 0.0 0.0 0.00 0.00 0.00 99 1013.4
20260905090049 20 0 0.0 0.0 0.00 0.00 0.00 99 1013.5
20260905084549 20 0 0.0 0.0 0.00 0.00 0.00 99 1013.6
20260905083059 20 0 0.0 0.0 0.00 0.00 0.00 99 1013.9
20260905081550 20 0 0.0 0.0 0.00 0.00 0.00 99 1014.0
20260905074549 20 0 0.0 0.0 0.00 0.00 0.00 99 1014.1
20260905073053 20 0 0.0 0.0 0.00 0.00 0.00 99 1014.2